Location: Natural Resources Conservation Service Jetmore Service Center
(38.0860°N, 99.8942°W)
Time: 23:08:12
(UTC+00:00)

Daily predictions for brighter satellites

Satellite Brightness Start Highest point End
(mag) Time Altitude Azimuth Time Altitude Azimuth Time Altitude Azimuth
Cosmos 2058 Rocket 4.5 12:00:38 10° SSE 12:04:44 39° E 12:08:49 10° NNE
STARLINK-27 4.1 12:05:46 41° NNW 12:05:46 41° NNW 12:09:06 10° NE
Cosmos 1825 Rocket 3.6 12:01:37 11° N 12:05:48 75° E 12:10:07 10° SSE
STARLINK-74 4.1 12:07:19 40° NNW 12:07:19 40° NNW 12:10:43 10° NE
Cosmos 2227 Rocket 4.0 12:09:57 14° SW 12:09:57 14° SW 12:11:07 10° SSW
STARLINK 1029 4.1 12:07:21 31° S 12:08:19 41° SE 12:11:18 10° ENE
STARLINK-39 4.2 12:08:56 39° NNW 12:08:56 39° NNW 12:12:22 10° NE
Cosmos 1726 2.0 12:05:03 10° S 12:08:43 86° E 12:12:23 10° N
Cosmos 2263 Rocket 3.3 12:04:18 10° N 12:09:41 44° ENE 12:15:04 10° SE
STARLINK 4.2 12:10:34 38° NNW 12:10:34 38° NNW 12:14:02 10° NE
STARLINK 1028 3.4 12:11:14 46° SSE 12:11:36 50° SE 12:14:27 10° ENE
STARLINK 1021 3.4 12:11:27 46° SSE 12:11:50 51° SE 12:14:40 10° ENE
STARLINK 1019 3.4 12:11:43 47° SSE 12:12:04 51° SE 12:14:54 10° ENE
STARLINK-69 4.3 12:12:25 35° NNW 12:12:25 35° NNW 12:15:49 10° NE
STARLINK 1033 4.3 12:09:52 18° SSW 12:12:16 45° SE 12:15:47 10° ENE
STARLINK 1012 3.4 12:11:53 46° SSE 12:12:17 51° SE 12:15:07 10° ENE
STARLINK 1010 3.4 12:12:05 46° SSE 12:12:29 52° SE 12:15:20 10° ENE
STARLINK 1026 3.4 12:12:17 47° S 12:12:42 52° SE 12:15:34 10° ENE
STARLINK 1013 3.4 12:12:32 47° S 12:12:57 53° SE 12:15:48 10° ENE
STARLINK 1009 3.3 12:12:44 47° S 12:13:10 53° SE 12:16:01 10° ENE
STARLINK 1015 3.3 12:12:58 47° S 12:13:24 53° SE 12:16:16 10° ENE
STARLINK-21 4.2 12:13:46 37° NNW 12:13:46 37° NNW 12:17:20 10° NE
STARLINK 1016 3.3 12:13:11 47° S 12:13:37 54° SE 12:16:29 10° ENE
STARLINK 1008 3.3 12:13:25 47° S 12:13:51 54° SE 12:16:43 10° ENE
METEOR-M 4.0 12:08:47 10° N 12:14:08 74° WNW 12:19:27 10° SSW
STARLINK 1025 3.3 12:13:50 47° S 12:14:18 55° SE 12:17:09 10° ENE
STARLINK 1017 3.3 12:14:03 47° S 12:14:31 55° SE 12:17:23 10° ENE
STARLINK 1023 3.2 12:14:14 47° S 12:14:43 56° SE 12:17:35 10° NE
ATLAS 2AS CENTAUR R/B 3.0 12:06:58 10° SW 12:14:53 75° NW 12:22:56 10° NNE
STARLINK 1007 3.2 12:14:29 47° S 12:14:58 56° SE 12:17:51 10° NE
STARLINK 1048 3.2 12:14:42 47° S 12:15:11 56° SE 12:18:03 10° NE
STARLINK 1049 3.2 12:14:53 47° S 12:15:24 57° SE 12:18:17 10° NE
STARLINK-45 4.4 12:15:43 33° NNW 12:15:43 33° NNW 12:19:10 10° NNE
STARLINK 1051 3.2 12:15:07 47° S 12:15:38 57° SE 12:18:30 10° NE
SJ-12 3.9 12:11:58 10° N 12:15:56 52° WNW 12:19:52 10° SSW
STARLINK-70 4.3 12:17:07 33° NNW 12:17:07 33° NNW 12:20:42 10° NNE
STARLINK 1014 3.1 12:16:56 43° SSW 12:17:41 62° SE 12:20:39 10° NE
STARLINK-76 4.3 12:18:32 34° NW 12:18:33 34° NNW 12:22:15 10° NNE
STARLINK 4.3 12:20:08 33° NW 12:20:14 33° NNW 12:23:54 10° NNE
Cosmos 1606 Rocket 3.5 12:16:25 10° SSW 12:20:49 64° W 12:25:14 10° N
COSMO-SKYMED 1 2.7 12:16:37 10° S 12:20:50 52° W 12:23:26 22° NNW
STARLINK-32 4.3 12:21:43 32° NW 12:21:52 32° NNW 12:25:32 10° NNE
Cosmos 1726 Rocket 3.4 12:17:59 10° S 12:22:25 78° W 12:26:52 10° N
STARLINK-40 4.4 12:23:20 31° NW 12:23:34 31° NNW 12:27:12 10° NNE
Cosmos 2218 Rocket 4.4 12:17:33 10° N 12:23:56 68° E 12:30:12 10° SSE
STARLINK-44 4.4 12:24:53 30° NW 12:25:11 31° NNW 12:28:48 10° NNE
Cosmos 972 Rocket 4.2 12:19:23 10° NNW 12:25:30 73° WSW 12:30:55 10° S
Cosmos 923 Rocket 4.0 12:20:44 10° SSW 12:25:54 61° WNW 12:31:10 10° N
MOS 1-B 4.3 12:20:21 10° N 12:26:03 61° WNW 12:31:43 10° SSW
Meteor 2-10 4.0 12:20:52 10° SSW 12:26:25 70° W 12:31:49 10° N
SL-4 R/B 1.7 12:25:55 34° NW 12:27:18 70° NE 12:30:42 10° ESE
USA 238 DEB 3.9 12:22:38 17° NW 12:28:22 65° WSW 12:35:43 10° SSE
USA 238 3.9 12:22:43 17° NW 12:28:29 65° WSW 12:35:50 10° SSE
STARLINK-36 4.5 12:28:06 28° NW 12:28:33 29° NNW 12:32:06 10° NNE
Cosmos 1908 3.2 12:26:15 10° S 12:30:09 86° E 12:34:05 10° N
STARLINK 1044 3.4 12:30:07 14° SW 12:33:13 78° SE 12:36:55 10° NE
SL-16 R/B 2.2 12:30:26 10° SSW 12:36:05 89° ESE 12:41:48 10° NNE
SJ-7 4.4 12:33:41 10° N 12:37:51 84° WNW 12:42:03 10° SSW
BREEZE M DEB (TANK) 3.5 12:39:22 24° NW 12:40:08 27° NNW 12:44:08 10° NE
Helios 1A Rocket 2.8 12:36:14 10° NNE 12:40:22 84° WNW 12:44:31 10° SSW
Genesis I 4.5 12:39:20 10° NNW 12:42:58 38° NE 12:46:32 10° ESE
Cosmos 2228 3.5 12:40:20 10° SSW 12:44:25 37° WNW 12:48:31 10° N
Cosmos 2360 Rocket 3.6 12:39:20 10° S 12:44:39 43° ESE 12:49:59 10° NE
Cosmos 1959 Rocket 4.4 12:39:49 10° N 12:45:58 83° W 12:52:07 10° S
Cosmos 1703 3.2 12:43:53 10° NNW 12:47:49 67° W 12:51:42 10° S
USA 32 4.2 12:43:48 10° NNW 12:48:51 49° W 12:53:52 10° SSW
FENGYUN 3A 4.2 12:44:19 10° N 12:49:11 35° WNW 12:54:02 10° SW
CZ-4B R/B 3.2 12:45:20 10° N 12:50:47 61° WNW 12:56:07 10° SSW
Cosmos 1980 Rocket 3.4 12:48:36 16° W 12:51:18 21° NW 12:55:35 10° N
STARLINK 1031 3.2 12:53:27 10° WSW 12:57:00 62° NW 13:00:35 10° NE
STARLINK 1040 3.3 12:55:22 18° W 12:57:06 36° NW 12:59:47 10° NNE
Cosmos 2366 rocket 4.0 12:51:59 10° NNW 12:58:18 69° W 13:04:35 10° S
STARLINK 1024 3.3 12:56:03 10° WSW 12:59:37 58° NW 13:03:11 10° NE
Milstar 3 Cent rocket 4.4 12:48:04 10° WSW 13:00:28 41° S 13:06:53 10° ESE
SMAP 3.1 12:57:11 10° NNE 13:01:52 84° ESE 13:06:31 10° SSW
Abrixas rocket 2.7 13:02:09 12° NW 13:04:44 45° NNE 13:07:39 10° ESE
STARLINK 1032 3.4 13:01:55 10° WSW 13:05:26 51° NW 13:08:58 10° NE
IRS-1C Rocket 4.3 13:01:25 10° NNE 13:06:43 78° ESE 13:11:59 10° S
CZ-4 R/B 4.3 13:04:33 10° NE 13:07:55 23° E 13:11:14 10° SSE
STARLINK 1011 3.5 13:04:34 10° WSW 13:08:04 48° NW 13:11:36 10° NE
AQUARIUS 4.2 13:05:19 10° NNE 13:09:50 86° WNW 13:14:19 10° SSW
STARLINK 1036 3.6 13:07:36 10° WSW 13:11:05 45° NW 13:14:35 10° NE
Orbus 7S? 4.2 13:07:37 10° NW 13:11:23 90° W 13:20:18 10° SE
Envisat 3.6 13:07:28 10° NNE 13:12:31 62° E 13:17:31 10° S
Meteor 1-11 4.3 13:07:12 10° NNW 13:12:42 59° W 13:18:15 10° S
Cosmos 1680 Rocket 4.3 13:10:34 10° SW 13:15:10 29° WNW 13:19:48 10° N
STARLINK 1047 3.7 13:13:11 10° WSW 13:16:38 41° NW 13:20:06 10° NE
STARLINK 1037 3.8 13:14:16 10° WSW 13:17:41 40° NW 13:21:08 10° NE
YAOGAN 6 3.5 13:14:52 10° NNE 13:18:21 53° E 13:21:46 10° S
Cosmos 158 Rocket 4.3 13:14:49 10° SW 13:19:21 39° WNW 13:23:58 10° N
STARLINK 1035 3.8 13:16:38 10° WSW 13:19:46 34° NW 13:22:55 10° NNE
Cosmos 1812 Rocket 3.8 13:15:39 10° S 13:19:59 78° E 13:24:23 10° N
Meteor 2-12 Rocket 4.4 13:14:27 10° N 13:20:33 78° W 13:26:39 10° S
STARLINK 1059 3.9 13:17:12 10° WSW 13:20:35 37° NW 13:24:01 10° NE
NOSS 3-2 (C) 4.4 13:13:23 10° NW 13:20:55 52° WSW 13:29:07 10° S
STARLINK 1027 4.0 13:19:30 10° W 13:22:35 31° NW 13:25:40 10° NNE
STARLINK 1057 3.9 13:20:08 10° WSW 13:23:30 36° NW 13:26:52 10° NNE
CORIOLIS 4.1 13:18:08 10° N 13:23:30 82° WNW 13:28:52 10° SSW
Cosmos 1371 Rocket 4.1 13:18:19 10° NNW 13:23:33 63° WSW 13:28:48 10° S
Feng Yun 1-1 Rocket 4.4 13:21:01 10° N 13:26:57 76° WNW 13:32:45 10° SSW
ATLAS 3B R/B 2.8 13:21:25 10° NW 13:28:11 79° WSW 13:35:10 10° SSE
